www.pogodaiklimat.ru

Погода и климат >> Архив погоды >> Мексика >> Culiacan


ПОГОДА в Culiacan

  • Прогноз погоды в Culiacan
  • Монитор погоды в Culiacan
  • Климат города

АРХИВ ПОГОДЫ в Culiacan

Время (UTC), дата Ветер
(напр.,м/с)
 
Видим.   Явления Облачность Т
(С)
Тd
(С)
f
(%)
Тe
(С)
Тes
(С)
Комфортность P
(гПа)
Po
(гПа)
Тmin
(С)
Tmax
(С)
R
(мм)
R24
(мм)
S
(см)
12 17.01 штиль 0 16 км ясно +10.0 +9.8 99 +9 +9 1019.2 1014.6 +9.6 +26.8
15 17.01 В 1 16 км ясно +11.1 1020.8 1016.1
18 17.01 Ю 1 16 км ясно +22.2 +14.6 62 +26 +37 душно 1021.7 1017.0 +8.0 +23.0
21 17.01 З 1 16 км ясно +27.2 +10.3 35 +28 +38 жарко 1019.2 1014.6
00 18.01 З 1 16 км ясно +27.0 +12.6 41 +29 +29 жарко 1017.7 1013.1 +8.0 +28.8
03 18.01 СЗ 1 16 км ясно +18.6 +11.9 65 +20 +20 1018.2 1013.7
06 18.01 штиль 0 16 км ясно +12.6 +11.2 91 +12 +12 1019.3 1014.8 +8.0 +28.8
09 18.01 ЮВ 1 16 км ясно +10.6 +10.6 100 +10 +10 1017.9 1013.4
12 18.01 В 1 16 км ясно +8.4 +8.4 100 +7 +7 1017.2 1012.6 +8.3 +28.8
15 18.01 штиль 0 16 км ясно +9.0 +9.0 100 +8 +10 1018.7 1014.1
21 18.01 Ю 1 16 км ясно +27.8 +10.7 34 +28 +38 жарко 1016.8 1012.2
00 19.01 Ю 1 16 км ясно +25.8 +13.4 46 +28 +28 жарко 1016.6 1012.1 +7.7 +28.6
03 19.01 СЗ 1 16 км ясно +17.0 +13.7 81 +18 +18 1018.0 1013.5
06 19.01 В 1 16 км ясно +12.8 +11.4 91 +13 +13 1018.6 1014.1 +12.6 +28.6
12 19.01 В 1 16 км ясно +10.6 +10.2 97 +10 +10 1018.1 1013.5 +10.5 +25.9
15 19.01 В 1 16 км ясно +11.0 +11.0 100 +11 +12 1019.0 1014.3
18 19.01 ЮВ 1 16 км ясно +25.0 +13.8 50 +27 +39 жарко 1019.6 1014.9 +8.5 +25.2
21 19.01 ЮЗ 1 16 км ясно +27.8 +12.7 39 +29 +39 жарко 1015.8 1011.2
00 20.01 ЮЗ 1 16 км ясно +25.8 +11.0 39 +27 +27 жарко 1015.1 1010.5 +9.2 +28.2
03 20.01 штиль 0 16 км ясно +18.6 +12.6 68 +19 +19 1016.4 1011.8
06 20.01 ЮВ 1 16 км ясно +13.8 +13.5 98 +14 +14 1017.4 1012.8 +13.6 +28.2
09 20.01 Ю 1 16 км ясно +12.0 +12.0 100 +12 +12 1017.0 1012.4
12 20.01 штиль 0 16 км ясно +11.4 +10.7 95 +11 +11 1017.3 1012.7 +9.7 +25.7
15 20.01 штиль 0 16 км ясно +12.0 +12.0 100 +11 +13 1018.4 1013.6
18 20.01 Ю 1 16 км ясно +24.7 +12.2 46 +26 +38 жарко 1019.2 1014.6 +9.6 +25.8
21 20.01 ЮЗ 2 16 км ясно +26.4 +12.8 43 +28 +37 жарко 1016.6 1012.0
00 21.01 З 2 16 км ясно +23.4 +10.2 43 +25 +26 комфорт 1016.0 1011.4 +9.6 +27.8
03 21.01 В 1 16 км ясно +15.3 +10.0 71 +16 +16 1017.6 1013.1
06 21.01 С 1 16 км ясно +14.4 +13.4 94 +15 +15 1018.5 1013.9 +13.7 +27.2
09 21.01 З 1 16 км ясно +11.6 +11.2 97 +11 +11 1018.7 1014.1
12 21.01 СЗ 1 16 км ясно +10.1 +10.1 100 +9 +9 1018.0 1013.3 +8.8 +23.8
15 21.01 СЗ 2 16 км 5/0 2000 м
[As trans]
+11.6 +9.8 89 +10 +11 1018.9 1014.3
18 21.01 Ю 1 16 км ясно +23.8 +9.9 41 +25 +37 комфорт 1019.5 1014.8 +8.8 +23.9
21 21.01 З 1 16 км ясно +26.8 +11.0 37 +28 +38 жарко 1016.5 1011.9
00 22.01 З 1 16 км ясно +24.4 +14.0 52 +27 +27 жарко 1015.5 1011.0 +10.7 +27.0
03 22.01 З 1 16 км ясно +19.4 +12.1 63 +22 +22 комфорт 1016.5 1012.0
06 22.01 СЗ 1 16 км ясно +14.6 +8.0 65 +15 +15 1017.6 1013.1 +8.8 +27.0
09 22.01 В 1 16 км ясно +10.4 +6.9 79 +10 +10 1017.2 1012.6
12 22.01 СЗ 1 16 км ясно +9.6 +8.5 93 +9 +9 1016.3 1011.8 +9.4 +27.0
15 22.01 В 1 16 км ясно +15.4 +7.2 58 +16 +16 1016.4 1011.8
18 22.01 З 1 16 км ясно +22.9 +10.3 45 +25 +37 комфорт 1017.6 1012.9 +8.8 +23.0
21 22.01 З 1 16 км ясно +27.0 +8.6 31 +27 +37 жарко 1013.7 1009.1
00 23.01 З 1 16 км ясно +25.8 +8.2 33 +26 +26 жарко 1013.3 1008.7 +8.8 +28.2
03 23.01 В 1 16 км ясно +17.0 +10.8 67 +18 +18 1014.3 1009.8
18 23.01 СЗ 2 16 км 5/0 2000 м
[As trans]
+20.5 +8.1 45 +22 +30 комфорт 1017.8 1013.2 +7.0 +20.6
21 23.01 З 2 16 км ясно +26.5 +6.5 28 +26 +35 жарко 1015.2 1010.6
00 24.01 З 2 16 км ясно +24.6 +12.3 46 +26 +27 жарко 1014.7 1010.1 +7.0 +27.8
03 24.01 штиль 0 16 км ясно +14.4 +10.2 76 +14 +14 1015.2 1010.7
06 24.01 В 1 16 км ясно +10.3 +8.2 87 +10 +10 1016.8 1012.2 +10.2 +27.8

 

Местоположение метеостанции Culiacan (Мексика): широта 24.80 долгота -107.40 высота над уровнем моря 39 м.

В архиве по умолчанию представлена погода в Culiacan за последнюю неделю. Архивные данные за месяц целиком и за предыдущие месяцы, начиная с января 2011 года, Вы можете получить, выбрав интересующий диапазон дат из раскрывающегося списка и нажав кнопку "Ввод!".

Внимание! Время в таблицах - всемирное. Для получения местного времени необходимо прибавить поправку, которая в Culiacan равна -7 ч.

Смотрите также архив погоды в соседних городах и на ближайших метеорологических станциях:

Погода в Tepehuanes (Мексика) (180 км)
Погода в Mazatlan (Мексика) (205 км)
Погода в Choix (Мексика) (229 км)
Погода в Durango (Мексика) (296 км)
Погода в Hidalgo del Parral (Мексика) (298 км)
Погода в La Paz (Мексика) (302 км)
Погода в Ciudad Obregon (Мексика) (377 км)
Погода в Sombrerete (Мексика) (407 км)
Погода в Torreon (Мексика) (411 км)
Погода в Loreto (Мексика) (415 км)

Пояснения к столбцам:

Ветер - указаны скорость ветра в м/с - средняя за 10 мин, порывы в срок и между сроками (в фигурных скобках) и направление, откуда дует ветер: С - северный, СВ - северо-восточный, В - восточный, ЮВ - юго-восточный, Ю - южный, ЮЗ - юго-западный, З - западный, СЗ - северо-западный.
Видимость - горизонтальная дальность видимости в метрах или километрах. При видимости от 1 до 10 км при отсутствии осадков обычно наблюдается дымка, при ухудшении видимости до 1 км и менее - туман. В сухую погоду видимость может ухудшаться дымом, пылью или мглою.
Явления - указаны атмосферные явления, наблюдавшиеся в срок или в последний час перед сроком; фигурными скобками обозначены явления, наблюдавшиеся между сроками (за 1-3 часа до срока); квадратными скобками обозначены град или гололедные отложения с указанием их диаметра в мм.
Облачность - указаны через наклонную черту общая и нижняя облачность в баллах и высота нижней границы облаков в метрах; квадратными скобками обозначены формы облаков: Ci - перистые, Cs - перисто-слоистые, Cc - перисто-кучевые, Ac - высококучевые, As - высокослоистые, Sc - слоисто-кучевые, Ns - слоисто-дождевые, Cu - кучевые, Cb - кучево-дождевые. Подробнее классификацию облаков см. в Атласе облаков (PDF).
T - Температура воздуха - температура, измеренная на высоте 2 м над землей.
Td - Температура точки росы - температура, при понижении до которой содержащийся в воздухе водяной пар достигнет насыщения.
f - Относительная влажность воздуха - влажноcть воздуха, измеренная на высоте 2 м над землей.
Te - Эффективная температура - температура, которую ощущает одетый по сезону человек в тени. Характеристика душности погоды. При расчете учитывается влияние влажности воздуха и скорости ветра на теплоощущения человека.
Tes - Эффективная температура на солнце - температура, которую ощущает человек, с поправкой на солнечный нагрев. Характеристика знойности погоды. Зависит от высоты солнца над горизонтом, облачности и скорости ветра. Ночью, в пасмурную погоду, а также при ветре 12 м/с и более поправка равна нулю.
P - Атмосферное давление - приведенное к уровню моря атмосферное давление.
Po - Атмосферное давление - измеренное на уровне метеостанции атмосферное давление.
Tmin - Минимальная температура - минимум температуры воздуха на высоте 2 м над землей.
Tmax - Максимальная температура - максимум температуры воздуха на высоте 2 м над землей.
R - Количество осадков - Количество выпавших осадков за период времени, мм. При наведении курсора мыши на число - период времени, за который выпало указанное количество осадков.
R24 - Количество осадков - Количество выпавших осадков за 24 часа, мм.
S - Снежный покров - Высота снежного покрова, см. При наведении курсора мыши на число - состояние снежного покрова и степень покрытия местности в баллах.